Previsão horária em Abdulkasimovo

Hoje, 27 Janeiro, Quarta-feira

Tempo Temperatura Precipitação Vento Pressão Humidade
00:00 -5°C° 0 mm 3 m/s 721 mmHg 77%
01:00 -5°C° 0 mm 3 m/s 721 mmHg 75%
02:00 -6°C° 0 mm 3 m/s 721 mmHg 77%
03:00 -6°C° 0 mm 3 m/s 721 mmHg 80%
04:00 -6°C° 0 mm 3 m/s 721 mmHg 82%
05:00 -7°C° 0 mm 3 m/s 721 mmHg 84%
06:00 -7°C° 0 mm 3 m/s 721 mmHg 86%
07:00 -7°C° 0 mm 2 m/s 721 mmHg 88%
08:00 -7°C° 0 mm 3 m/s 721 mmHg 88%
09:00 -7°C° 0 mm 3 m/s 721 mmHg 88%
10:00 -6°C° 0 mm 3 m/s 721 mmHg 88%
11:00 -5°C° 0 mm 3 m/s 721 mmHg 87%
12:00 -4°C° 0 mm 3 m/s 721 mmHg 85%
13:00 -1°C° 0 mm 3 m/s 721 mmHg 84%
14:00 -2°C° 0 mm 3 m/s 721 mmHg 86%
15:00 -3°C° 0 mm 2 m/s 721 mmHg 88%
16:00 -4°C° 0 mm 2 m/s 721 mmHg 90%
17:00 -5°C° 0 mm 2 m/s 721 mmHg 90%
18:00 -7°C° 0 mm 2 m/s 721 mmHg 90%
19:00 -8°C° 0 mm 2 m/s 721 mmHg 91%
20:00 -8°C° 0 mm 2 m/s 720 mmHg 91%
21:00 -8°C° 0 mm 2 m/s 720 mmHg 91%
22:00 -9°C° 0 mm 2 m/s 720 mmHg 90%
23:00 -8°C° 0 mm 2 m/s 720 mmHg 90%

Amanhã, 28 Janeiro, Quinta-feira

Tempo Temperatura Precipitação Vento Pressão Humidade
00:00 -8°C° 0 mm 2 m/s 720 mmHg 89%
01:00 -8°C° 0 mm 2 m/s 720 mmHg 89%
02:00 -8°C° 0 mm 2 m/s 720 mmHg 88%
03:00 -8°C° 0 mm 2 m/s 720 mmHg 87%
04:00 -8°C° 0 mm 2 m/s 720 mmHg 87%
05:00 -8°C° 0 mm 2 m/s 719 mmHg 86%
06:00 -8°C° 0 mm 2 m/s 719 mmHg 86%
07:00 -8°C° 0 mm 2 m/s 719 mmHg 85%
08:00 -8°C° 0 mm 2 m/s 719 mmHg 84%
09:00 -7°C° 0 mm 2 m/s 719 mmHg 83%
10:00 -7°C° 0 mm 3 m/s 719 mmHg 83%
11:00 -6°C° 0 mm 3 m/s 719 mmHg 81%
12:00 -5°C° 0 mm 3 m/s 719 mmHg 80%
13:00 -4°C° 0 mm 3 m/s 718 mmHg 79%
14:00 -5°C° 0 mm 3 m/s 718 mmHg 80%
15:00 -6°C° 0 mm 3 m/s 718 mmHg 82%
16:00 -6°C° 0 mm 3 m/s 718 mmHg 84%
17:00 -6°C° 0 mm 2 m/s 718 mmHg 83%
18:00 -7°C° 0 mm 2 m/s 718 mmHg 83%
19:00 -8°C° 0 mm 2 m/s 717 mmHg 82%
20:00 -8°C° 0 mm 2 m/s 717 mmHg 81%
21:00 -8°C° 0 mm 2 m/s 717 mmHg 80%
22:00 -8°C° 0 mm 2 m/s 717 mmHg 79%
23:00 -7°C° 0 mm 1 m/s 717 mmHg 78%

Depois de amanhã, 29 Janeiro, Sexta-feira

Tempo Temperatura Precipitação Vento Pressão Humidade
00:00 -8°C° 0 mm 1 m/s 717 mmHg 77%
01:00 -8°C° 0 mm 1 m/s 717 mmHg 77%
02:00 -8°C° 0 mm 1 m/s 717 mmHg 75%
03:00 -8°C° 0 mm 1 m/s 716 mmHg 73%
04:00 -8°C° 0 mm 1 m/s 716 mmHg 72%
05:00 -8°C° 0 mm 1 m/s 716 mmHg 72%
06:00 -8°C° 0 mm 1 m/s 716 mmHg 72%
07:00 -8°C° 0 mm 1 m/s 716 mmHg 72%
08:00 -7°C° 0 mm 1 m/s 716 mmHg 74%
09:00 -7°C° 0 mm 1 m/s 715 mmHg 75%
10:00 -6°C° 0 mm 1 m/s 715 mmHg 77%
11:00 -6°C° 0 mm 2 m/s 715 mmHg 78%
12:00 -6°C° 0 mm 2 m/s 715 mmHg 78%
13:00 -5°C° 0 mm 2 m/s 715 mmHg 79%
14:00 -7°C° 0 mm 2 m/s 714 mmHg 81%
15:00 -8°C° 0 mm 2 m/s 713 mmHg 83%
16:00 -10°C° 0 mm 2 m/s 713 mmHg 85%
17:00 -12°C° 0 mm 2 m/s 712 mmHg 84%
18:00 -13°C° 0 mm 2 m/s 712 mmHg 84%
19:00 -14°C° 0 mm 2 m/s 712 mmHg 84%
20:00 -14°C° 0 mm 2 m/s 712 mmHg 86%
21:00 -14°C° 0 mm 2 m/s 711 mmHg 87%
22:00 -15°C° 0 mm 2 m/s 711 mmHg 89%
23:00 -14°C° 0 mm 2 m/s 711 mmHg 90%

30 Janeiro, Sábado

Tempo Temperatura Precipitação Vento Pressão Humidade
00:00 -14°C° 0 mm 2 m/s 711 mmHg 91%
01:00 -12°C° 0 mm 1 m/s 711 mmHg 92%
02:00 -11°C° 0.1 mm 1 m/s 711 mmHg 93%
03:00 -11°C° 0.1 mm 1 m/s 710 mmHg 93%
04:00 -10°C° 0.1 mm 1 m/s 710 mmHg 94%
05:00 -10°C° 0.3 mm 1 m/s 710 mmHg 95%
06:00 -10°C° 0.3 mm 1 m/s 710 mmHg 95%
07:00 -11°C° 0.3 mm 1 m/s 710 mmHg 96%
08:00 -10°C° 0 mm 1 m/s 710 mmHg 95%
09:00 -12°C° 0 mm 2 m/s 710 mmHg 95%
10:00 -12°C° 0 mm 2 m/s 710 mmHg 95%
11:00 -9°C° 0 mm 2 m/s 710 mmHg 94%
12:00 -8°C° 0 mm 2 m/s 710 mmHg 93%
13:00 -6°C° 0 mm 1 m/s 710 mmHg 92%
14:00 -6°C° 0 mm 1 m/s 710 mmHg 93%
15:00 -7°C° 0 mm 1 m/s 710 mmHg 94%
16:00 -7°C° 0 mm 1 m/s 710 mmHg 95%
17:00 -8°C° 0 mm 1 m/s 710 mmHg 95%
18:00 -8°C° 0 mm 1 m/s 710 mmHg 95%
19:00 -9°C° 0 mm 1 m/s 710 mmHg 94%
20:00 -9°C° 0 mm 1 m/s 710 mmHg 93%
21:00 -9°C° 0 mm 1 m/s 710 mmHg 92%
22:00 -9°C° 0 mm 1 m/s 710 mmHg 91%
23:00 -9°C° 0 mm 1 m/s 710 mmHg 89%

31 Janeiro, Domingo

Tempo Temperatura Precipitação Vento Pressão Humidade
00:00 -8°C° 0 mm 1 m/s 710 mmHg 87%
01:00 -8°C° 0 mm 1 m/s 710 mmHg 85%
02:00 -7°C° 0 mm 1 m/s 710 mmHg 85%
03:00 -7°C° 0 mm 1 m/s 710 mmHg 85%
04:00 -6°C° 0 mm 1 m/s 710 mmHg 85%
05:00 -6°C° 0 mm 1 m/s 711 mmHg 85%
06:00 -6°C° 0 mm 1 m/s 711 mmHg 85%
07:00 -6°C° 0 mm 1 m/s 711 mmHg 85%
08:00 -6°C° 0 mm 2 m/s 711 mmHg 86%
09:00 -6°C° 0 mm 2 m/s 711 mmHg 86%
10:00 -5°C° 0 mm 2 m/s 712 mmHg 86%
11:00 -4°C° 0 mm 2 m/s 712 mmHg 86%
12:00 -1°C° 0 mm 1 m/s 712 mmHg 86%
13:00 0°C° 0 mm 1 m/s 712 mmHg 87%
14:00 -1°C° 0 mm 1 m/s 712 mmHg 88%
15:00 -1°C° 0 mm 1 m/s 712 mmHg 89%
16:00 -2°C° 0 mm 1 m/s 712 mmHg 90%
17:00 -2°C° 0 mm 1 m/s 712 mmHg 88%
18:00 -3°C° 0 mm 1 m/s 712 mmHg 87%
19:00 -3°C° 0 mm 1 m/s 712 mmHg 85%
20:00 -4°C° 0 mm 1 m/s 712 mmHg 85%
21:00 -4°C° 0 mm 1 m/s 712 mmHg 84%
22:00 -4°C° 0 mm 1 m/s 712 mmHg 83%
23:00 -4°C° 0 mm 1 m/s 712 mmHg 82%

1 Fevereiro, Segunda-feira

Tempo Temperatura Precipitação Vento Pressão Humidade
00:00 -6°C° 0 mm 1 m/s 712 mmHg 82%
01:00 -6°C° 0 mm 1 m/s 712 mmHg 81%
02:00 -7°C° 0 mm 1 m/s 712 mmHg 81%
03:00 -7°C° 0 mm 1 m/s 711 mmHg 81%
04:00 -7°C° 0 mm 1 m/s 711 mmHg 81%
05:00 -8°C° 0 mm 1 m/s 711 mmHg 81%
06:00 -8°C° 0 mm 1 m/s 711 mmHg 81%
07:00 -8°C° 0 mm 1 m/s 711 mmHg 82%
08:00 -7°C° 0 mm 1 m/s 711 mmHg 82%
09:00 -7°C° 0 mm 2 m/s 711 mmHg 82%
10:00 -7°C° 0 mm 2 m/s 711 mmHg 83%
11:00 -6°C° 0 mm 2 m/s 711 mmHg 84%
12:00 -4°C° 0 mm 2 m/s 711 mmHg 85%
13:00 -1°C° 0 mm 1 m/s 711 mmHg 86%
14:00 -2°C° 0 mm 1 m/s 711 mmHg 87%
15:00 -2°C° 0 mm 1 m/s 711 mmHg 88%
16:00 -3°C° 0 mm 1 m/s 711 mmHg 89%
17:00 -4°C° 0 mm 1 m/s 711 mmHg 88%
18:00 -4°C° 0 mm 1 m/s 711 mmHg 87%
19:00 -6°C° 0 mm 1 m/s 711 mmHg 87%
20:00 -6°C° 0 mm 1 m/s 711 mmHg 85%
21:00 -6°C° 0 mm 1 m/s 710 mmHg 83%
22:00 -6°C° 0 mm 1 m/s 710 mmHg 81%
23:00 -6°C° 0 mm 1 m/s 710 mmHg 81%
Mostrar mais